Location: Lewisville
(33.0462°N, 96.9942°W)
Time: 07:38:13
(UTC-05:00)

Envisat - Pass Details

Date: 21 September 2021
Orbit: 764 x 766 km, 98.2° (Epoch: 22 October)

Event Time Altitude Azimuth Distance (km) Brightness Sun altitude
Rises 06:29:30 0° 13° (NNE) 3,234 6.5 -10.5°
Reaches altitude 10° 06:31:49 10° 15° (NNE) 2,304 5.8 -10.0°
Maximum altitude 06:36:54 81° 102° (ESE) 777 3.1 -8.9°
Drops below altitude 10° 06:41:57 10° 190° (S) 2,290 5.3 -7.9°
Sets 06:44:15 0° 191° (S) 3,212 6.1 -7.4°
